Other Public Products
Issued by NWS Grand Forks, ND

Home | Current Version | Previous Version | Graphics & Text | Print | Product List | Glossary On
Versions: 1 2 3 4 5 6 7 8 9 10 11 12 13 14 15 16 17 18 19 20 21 22 23 24 25 26 27 28 29 30 31 32 33 34 35 36 37 38 39 40 41 42 43 44 45 46 47 48 49 50
000
FPUS83 KFGF 252331
OPUFGF
PRAIRIE TO PINES WEATHER ROUNDUP
NATIONAL WEATHER SERVICE EASTERN NORTH DAKOTA/GRAND FORKS ND
600 PM CDT WED MAY 25 2016

 **SATELLITE DATA USED TO AUGMENT SKY COVER AT AUTOMATED STATIONS**
 *****  WEATHER ACROSS EASTERN NORTH DAKOTA  *****

CITY           SKY/WX    TMP DP  RH WIND       PRES   REMARKS
GRAND FORKS    CLOUDY    61  59  93 NE12      29.68F
GRAND FORKS AF LGT RAIN  61  61 100 N7        29.69F FOG
GRAND CITY NWS   N/A     59 N/A N/A NE5         N/A
BUXTON           N/A     63  63  99 W10         N/A
DEVILS LAKE    CLOUDY    59  55  87 NE17      29.76F
FARGO          MOSUNNY   67  59  75 W14       29.72R
WAHPETON ARPT  CLEAR     70  57  64 NW10      29.75S
$$

 *****  WEATHER ACROSS CENTRAL AND WESTERN NORTH DAKOTA  *****

CITY           SKY/WX    TMP DP  RH WIND       PRES   REMARKS
JAMESTOWN      NOT AVBL
BISMARCK       TSTM      59  55  87 N9G21     29.74S
MINOT          LGT RAIN  62  58  86 E13       29.73F
MINOT AFB      CLOUDY    63  57  82 SE10      29.74F
GARRISON         N/A     62  57  83 W6        29.76R
WILLISTON      CLOUDY    58  49  72 N10       29.82S
DICKINSON      MOSUNNY   60  44  55 NW18      29.80S
HETTINGER      SUNNY     64  43  46 NW20G26   29.84S
$$

 *****  OTHER OBSERVATIONS NORTHEAST NORTH DAKOTA  *****

CITY           SKY/WX    TMP DP  RH WIND       PRES   REMARKS
WALHALLA       LGT RAIN  55  55 100 NE12      29.79F
LANGDON        CLOUDY    59  59 100 NE18      29.78F
CAVALIER       LGT RAIN  57  57 100 NE13      29.78F
GRAFTON        LGT RAIN  59  59 100 N14G22    29.74F
CANDO          FAIR      59  57  94 NE13G22   29.78F
FORT TOTTEN    NOT AVBL
ROLLA          CLOUDY    55  55 100 E10       29.81S
RUGBY          MOCLDY    59  59 100 E15       29.76F
 ***** THE ABOVE OBSERVATIONS ARE NON NWS ARE NOT QUALITY
        CONTROLLED AND MAY MIS-REPORT RAIN FOR SNOW...
$$

 *****  OTHER OBSERVATIONS SOUTHEAST NORTH DAKOTA *****

CITY           SKY/WX    TMP DP  RH WIND       PRES   REMARKS
COOPERSTOWN    NOT AVBL
VALLEY CITY    FAIR      64  63  94 N9        29.76F
OAKES            N/A    N/A N/A N/A MISG        N/A
GWINNER        CLOUDY    68  61  77 N7        29.75S
SHEYENNE NWR     N/A     68  59  74 N8        29.95
BUFFALO          N/A     64  57  76 NW13        N/A
WYNDMERE         N/A    N/A N/A N/A NW7         N/A
 ***** THE ABOVE OBSERVATIONS ARE NON NWS ARE NOT QUALITY
       CONTROLLED AND MAY MIS-REPORT RAIN FOR SNOW...
$$

  *****  WEATHER ACROSS NORTHERN MINNESOTA  *****

CITY           SKY/WX    TMP DP  RH WIND       PRES   REMARKS
FLAG ISLAND    LGT RAIN  61  55  82 E7        29.82F
WARROAD        HVY RAIN  57  54  88 NE13      29.81F
ROSEAU         LGT RAIN  59  54  82 NE16      29.78F
HALLOCK        LGT RAIN  57  57 100 NE16      29.74F
THF RVR FALLS  CLOUDY    61  55  82 SE17G26   29.71F
HALSTAD        NOT AVBL
FOSSTON        LGT RAIN  59  57  94 SE12G18   29.71S
BAUDETTE       LGT RAIN  60  57  89 E13       29.80F
WASKISH        LGT RAIN  61  57  88 CALM      29.77F
CROOKSTON      CLOUDY    61  61 100 SE9       29.68F
$$
  *****  WEATHER ACROSS CENTRAL AND WEST MINNESOTA  *****

CITY           SKY/WX    TMP DP  RH WIND       PRES   REMARKS
BEMIDJI        CLOUDY    60  56  88 SE16      29.77S
PARK RAPIDS    CLOUDY    65  61  87 S12       29.77R
WADENA         CLOUDY    70  63  78 S7        29.76R
DETROIT LAKES  SUNNY     70  59  68 SW21G26   29.75R
MOORHEAD       PTSUNNY   66  61  82 W12G18    29.73R
FERGUS FALLS   SUNNY     72  61  68 W14       29.72S
ELBOW LAKE     CLOUDY    74  59  58 NW12      29.75S
MORRIS MN      MOSUNNY   79  57  47 SW17      29.74R
STAPLES        CLOUDY    70  61  73 SE12      29.77S
WHEATON        MOSUNNY   79  61  53 W7        29.75S
$$
  *****  WEATHER ELSEWHERE ACROSS MINNESOTA  *****

CITY           SKY/WX    TMP DP  RH WIND       PRES   REMARKS
DULUTH         LGT RAIN  49  47  93 E18G26    29.92F FOG
INTRNTL FALLS  LGT RAIN  66  53  63 E9        29.86F
ELY            CLOUDY    63  48  59 SE12      29.92R
CLOQUET        CLOUDY    50  46  87 E18G25    29.89F
BRAINERD       PTSUNNY   61  57  87 VRB6      29.81F
HIBBING        CLOUDY    58  57  97 E12       29.87F
ALEXANDRIA     MOSUNNY   76  56  49 SW15      29.77S
SAINT CLOUD    CLOUDY    74  66  76 SE9       29.78S
MINNEAPOLIS    CLOUDY    74  63  68 VRB5      29.79F
$$

  *****  WEATHER ACROSS SOUTH DAKOTA  *****

CITY           SKY/WX    TMP DP  RH WIND       PRES   REMARKS
SIOUX FALLS    MOSUNNY   79  62  56 W6        29.79S
BROOKINGS      MOSUNNY   76  60  57 SW12      29.78F
WATERTOWN      MOSUNNY   76  58  53 SW15G24   29.77S
HURON          MOSUNNY   77  58  51 NW3       29.76S
SISSETON         N/A     77  58  51 W15       29.72S
ABERDEEN       MOSUNNY   77  58  51 W10       29.73S
MITCHELL       MOSUNNY   75  60  59 W3        29.78S
PIERRE         CLOUDY    68  51  54 VRB5      29.76F
MOBRIDGE       CLOUDY    70  54  56 W20G29    29.72S
RAPID CITY     MOSUNNY   65  46  50 NE13      29.87S
$$

  *****  SOME WEATHER IN NEARBY STATES *****

CITY           SKY/WX    TMP DP  RH WIND       PRES   REMARKS
GLASGOW MT     MOSUNNY   64  42  44 N8        29.82F
GREAT FALLS MT LGT RAIN  56  44  64 SW3       29.88F
CHEYENNE WY    CLOUDY    61  37  41 W3        29.97S
SCOTTSBLUFF NE CLOUDY    70  37  29 SW16      29.90S
OMAHA NE       CLOUDY    78  65  63 SW13      29.82F
DES MOINES IA  MOSUNNY   78  62  57 CALM      29.85F
DAVENPORT IA   CLOUDY    83  56  39 SW13      29.86F
CHICAGO IL     TSTM      68  65  90 SE10      29.93R FOG
EAU CLAIRE WI  RAIN      66  64  93 S7        29.81S FOG
LA CROSSE WI   MOSUNNY   79  63  57 SW15      29.80F
$$

  *****  SOME NATIONAL WEATHER *****

CITY           SKY/WX    TMP DP  RH WIND       PRES   REMARKS
LA GUARDIA NY  FAIR      89  47  23 W9        30.01F
RALEIGH NC     PTSUNNY   83  57  41 W8        30.15F
ATLANTA GA     FAIR      84  54  35 S12       30.16F
NEW ORLEANS LA FAIR      84  72  67 SE12      30.09F
OKLAHOMA CITY  FAIR      87  73  62 S14G23    29.86S HX  94
ALBUQUERQUE NM PTSUNNY   79  17  10 SW10G21   29.98F
SALT LAKE CITY PTSUNNY   65  38  36 E5        30.00S
LOS ANGELES CA MOSUNNY   66  51  58 W13       30.08F
BOISE ID       CLOUDY    65  40  39 NE18      29.99R
SEATTLE WA     PTSUNNY   62  49  62 SW15      30.18S
$$

*** WEATHER ACROSS MANITOBA...SASKATCHEWAN AND ONTARIO ***
                ***ONTARIO***

CITY           SKY/WX    TMP DP  RH WIND       PRES   REMARKS
GERALDTON      CLOUDY    72  41  33 SE7       30.02F
THUNDER BAY    CLOUDY    54  46  76 E8        30.03S
SIOUX LOOKOUT  CLOUDY    61  54  77 SE7       29.95F
TORONTO        PTSUNNY   82  57  42 NW9       30.00F
BIG TROUT LK   CLOUDY    63  48  59 SE8       30.00F
PICKLE LAKE    CLOUDY    68  50  52 S8        29.97F
DRYDEN         CLOUDY    63  55  77 E7        29.93S
KENORA         CLOUDY    63  54  72 E13       29.88F
$$
                *** MANITOBA***

CITY           SKY/WX    TMP DP  RH WIND       PRES   REMARKS
BRANDON        LGT RAIN  59  55  88 E20       29.82F
DAUPHIN        TSTM      63  54  72 SE25G36   29.85R
ISLAND LAKE    MOSUNNY   68  50  52 SE10      29.91S
PILOT MOUND      N/A     57  55  94 E10         N/A
THE PAS        MOSUNNY   70  46  43 NW6       29.88S
THOMPSON       PTSUNNY   70  45  40 SW9       29.88F
WINNIPEG       LGT RAIN  59  55  88 E7        29.86F
LYNN LAKE      PTSUNNY   68  43  40 SW10G17   29.84F
CHURCHILL      LGT RAIN  36  34  93 SE15G21   30.02S
GILLAM         MOSUNNY   68  34  28 SE7       29.92F
$$
                ***SASKATCHEWAN***

CITY           SKY/WX    TMP DP  RH WIND       PRES   REMARKS
ESTEVAN        LGT RAIN  59  55  88 E9        29.79S
KINDERSLEY     PTSUNNY   61  46  59 E5        29.88S
LLOYDMINSTER   PTSUNNY   68  45  42 VRB3      29.87S
PRINCE ALBERT  MOSUNNY   68  50  52 CALM      29.87F
REGINA         LGT RAIN  54  50  87 N10       29.86S
YORKTON        LGT RAIN  59  52  77 SE8       29.88R   C1F1C2F2C3F3C4F4C5F5C6F6C7F7C8F8C9F9CaFaCbFbCcFcCdFdCe!



USA.gov is the U.S. government's official web portal to all federal, state and local government web resources and services.